Regional Weather Roundup
Issued by NWS Sioux Falls, SD

Home | Current Version | Previous Version | Graphics & Text | Print | Product List | Glossary Off
Versions: 1 2 3 4 5 6 7 8 9 10 11 12 13 14 15 16 17 18 19 20 21 22 23 24 25 26 27 28 29 30 31 32 33 34 35 36 37 38 39 40 41 42 43 44 45 46 47 48 49 50

000
ASUS43 KFSD 260610
RWRFSD

WEATHER ROUNDUP FOR SE SOUTH DAKOTA/SW MINNESOTA/NW IOWA
NATIONAL WEATHER SERVICE SIOUX FALLS SD
100 AM CDT THU APR 26 2018

NOTE: "FAIR" INDICATES FEW OR NO CLOUDS BELOW 12,000 FEET WITH NO
SIGNIFICANT WEATHER AND OR OBSTRUCTIONS TO VISIBILITY.


SDZ038>040-050-052>070-260700-
SOUTHEAST SOUTH DAKOTA

CITY           SKY/WX    TMP DP  RH WIND       PRES   REMARKS
BROOKINGS      CLOUDY    45  33  63 S12       29.90F
CHAMBERLAIN    CLOUDY    50  34  53 SW7       29.88R
6HR MIN TEMP:  47; 6HR MAX TEMP:  65;

HURON          CLOUDY    48  35  60 S12       29.86F
6HR MIN TEMP:  48; 6HR MAX TEMP:  60;

MADISON        FAIR      43  32  65 S10       29.91F
MITCHELL       CLOUDY    49  35  58 S10       29.90F
6HR MIN TEMP:  49; 6HR MAX TEMP:  60;

SIOUX FALLS    CLOUDY    48  30  49 SW7       29.92F
6HR MIN TEMP:  46; 6HR MAX TEMP:  59;

WINNER         FAIR      53  30  41 S16       29.87R
YANKTON        PTCLDY    47  32  56 S5        29.95F
$$

MNZ071-072-080-081-089-090-097-098-260700-
SOUTHWEST MINNESOTA

CITY           SKY/WX    TMP DP  RH WIND       PRES   REMARKS
FAIRMONT       CLOUDY    41  37  86 S7        29.96S
JACKSON        CLOUDY    41  34  75 S7        29.95F
LUVERNE        CLOUDY    37  32  81 S5        29.94F
MARSHALL       PTCLDY    41  33  73 SW12      29.90F
6HR MIN TEMP:  41; 6HR MAX TEMP:  58;

MONTEVIDEO     CLOUDY    45  36  70 SW3       29.90F
PIPESTONE      CLOUDY   N/A N/A N/A SW7       29.92F
REDWOOD FALLS  PTCLDY    43  35  73 S10       29.90F
TRACY          CLOUDY    46  35  64 SW13      29.90F
WINDOM         CLOUDY    45  25  45 S6        29.94F
WORTHINGTON    CLOUDY    43  32  65 S8        29.95F
$$

IAZ001>003-012>014-020>022-031-032-NEZ013-014-SDZ071-260700-
NORTHWEST IOWA

CITY           SKY/WX    TMP DP  RH WIND       PRES   REMARKS
CHEROKEE       PTCLDY    39  35  83 CALM      29.96F
DENISON        CLOUDY    37  28  70 E5        29.99F
ESTHERVILLE    CLOUDY    41  37  86 S7        29.95F
LE MARS        CLOUDY    43  36  75 CALM      29.96S
ORANGE CITY    MOCLDY    46  30  53 CALM      29.95F
SHELDON          N/A     39  32  75 SE3       29.94S
SIOUX CITY     CLOUDY    47  32  56 CALM      29.96F
6HR MIN TEMP:  42; 6HR MAX TEMP:  62;

SPENCER        CLOUDY    41  32  70 S5        29.95F
6HR MIN TEMP:  41; 6HR MAX TEMP:  60;

STORM LAKE     MOCLDY    45  27  49 S8        29.97S
$$

ABBREVIATIONS USED IN REMARKS
   TC - TEMPERATURE IN CELSIUS
  WCI - WIND CHILL INDEX
   HX - HEAT INDEX
  VSB - VISIBILITY





USA.gov is the U.S. government's official web portal to all federal, state and local government web resources and services.